Regional Weather Roundup
Issued by NWS Wakefield, VA

Home | Current Version | Previous Version | Graphics & Text | Print | Product List | Glossary On
Versions: 1 2 3 4 5 6 7 8 9 10 11 12 13 14 15 16 17 18 19 20 21 22 23 24 25 26 27 28 29 30 31 32 33 34 35
000
ASUS41 KAKQ 290915
RWRAKQ

REGIONAL WEATHER ROUNDUP
NATIONAL WEATHER SERVICE WAKEFIELD VA
500 AM EDT WED JUL 29 2015

Note: "fair" indicates few or no clouds below 12,000 feet with no
significant weather and/or obstructions to visibility. * = Denotes
station may not report precipitation (e.g., rain,snow,etc.),
thunder or fog.

VAZ042-051-052>054-056-291000-
NORTHERN VIRGINIA

CITY           SKY/WX    TMP DP  RH WIND       PRES   REMARKS
WASH NATIONAL  PTCLDY    78  74  87 S5        29.98S
DULLES         PTCLDY    71  70  96 CALM      30.00R
FORT BELVOIR   CLOUDY    72  72 100 CALM      29.98R FOG
QUANTICO       PTCLDY    74  70  87 NW6       29.98S
FREDERICKSBRG* FOG       18  18 100 CALM      29.98R VSB 1/4
STAFFORD*      FOG       69  68  97 CALM      30.02S VSB 1/4
WARRENTON      FOG       72  72 100 CALM      30.00R VSB 1/4
CULPEPER*      CLOUDY    71  71 100 CALM      30.01R FOG
MANASSAS*      CLOUDY    72  72 100 CALM      29.99R
LEESBURG*      FOG       72  72 100 CALM      30.01R VSB 3/4
WINCHESTER     CLEAR     70  70 100 CALM      30.01R FOG
FRONT ROYAL*   CLOUDY    68  68 100 CALM      30.00R VSB 1/2
LURAY*         FOG       70  70 100 CALM      30.02R VSB 3/4
$$

VAZ048-049-060>072-079>083-291000-
CENTRAL AND SOUTH CENTRAL VIRGINIA

CITY           SKY/WX    TMP DP  RH WIND       PRES   REMARKS
RICHMOND       CLEAR     74  70  87 S3        29.99R
CHESTERFIELD*  CLOUDY    73  63  68 S3        30.00R
PETERSBURG*    CLOUDY    73  73 100 CALM      30.00R
HANOVER        CLEAR     71  70  96 CALM      30.00R FOG
TAPPAHANNOCK*  CLEAR     73  70  91 CALM      30.00R
QUINTON*       FAIR      73  71  93 CALM      29.98S
CHARLOTTSVILLE FOG       72  71  97 N3        30.01R VSB 3/4
GORDONSVILLE*  FOG       72  72 100 CALM      30.00R VSB 1
ORANGE*        CLOUDY    73  73 100 CALM      30.01S FOG
LOUISA*        CLOUDY    73  73 100 CALM      29.99S FOG
BUMPASS*       CLOUDY    72  72  99 SE3       29.99S
FARMVILLE*     CLOUDY    73  73 100 CALM      29.99R FOG
CREWE*         CLOUDY   N/A N/A N/A CALM      30.00R
FORT PICKETT*  CLOUDY    73  72  98 S12       30.00S
CHASE CITY*    CLOUDY    75  75 100 CALM      30.01R
CLARKSVILLE*   CLOUDY    73  72  94 E3        29.99S
SOUTH HILL*    CLOUDY    72  71  96 CALM      30.06R
LAWRENCEVILLE* PTSUNNY   72  72 100 CALM      30.00S
EMPORIA*       CLOUDY    72  70  94 CALM      30.01S
$$

VAZ088>098-291000-
SOUTHEAST VIRGINIA

CITY           SKY/WX    TMP DP  RH WIND       PRES   REMARKS
NORFOLK        CLEAR     74  69  85 SW5       29.98S
VIRGINIA BEACH PTCLDY    75  70  84 SW3       29.97F
NORFOLK NAVAL  PTCLDY    75  71  87 S3        30.00S
WEST POINT*    CLEAR     78  72  83 S5        30.00R
SALUDA*        FAIR      74  73  94 SW3       29.98S
NEWPORT NEWS   CLEAR     76  72  87 SW7       29.99S
LANGLEY AFB    CLEAR     76  71  86 SW6       29.99S
FORT EUSTIS    CLEAR     76  76 100 S3        29.97S
WILLIAMSBURG*  CLEAR     79  73  83 SW3       30.00S
HR EXEC AP*    FAIR      68  64  88 CALM      30.01S
FRANKLIN*      CLEAR     70  69  96 CALM      30.00R
WAKEFIELD      PTCLDY    72  69  90 CALM      29.99S FOG
$$

VAZ020-022-025-037-045-291000-
WEST CENTRAL AND SOUTHWEST VIRGINIA

CITY           SKY/WX    TMP DP  RH WIND       PRES   REMARKS
STAUNTON*      CLOUDY    73  71  95 CALM      30.05R FOG
WAYNESBORO*    CLOUDY    70  70 100 CALM      30.04R
HOT SPRINGS VA CLOUDY    67  67 100 CALM      30.14R FOG
LYNCHBURG      CLOUDY    72  72 100 CALM      30.03R
DANVILLE       FOG       73  72  96 CALM      30.00R VSB 1/4
SOUTH BOSTON*  CLOUDY    72  71  95 CALM      30.00R
MARTINSVILLE   FOG       70  70 100 CALM      30.03R VSB 1/2
ROANOKE        CLOUDY    74  72  93 CALM      30.04R
BLACKSBURG     CLOUDY    69  69 100 E5        30.09S FOG
DUBLIN*        CLOUDY    70  70 100 CALM      30.07S FOG
MARION*        FOG       66  65  96 CALM      30.10S VSB 1
HILLSVILLE*    FOG       65  65 100 CALM      30.07F VSB<1/4
RICHLANDS*     CLOUDY    67  67 100 CALM      30.09R FOG
WISE*          CLOUDY    72  72 100 CALM      30.09S FOG
ABINGDON*      CLEAR     70  69  95 CALM      30.06S FOG
$$

MDZ021>025-VAZ099-100-291000-
SOUTHERN MARYLAND AND THE DELMARVA PENINSULA

CITY           SKY/WX    TMP DP  RH WIND       PRES   REMARKS
PATUXENT RIVER CLEAR     73  71  93 S3        29.97F
BAY BRIDGE APT   N/A     77  73  88 CALM      29.97S
LEONARDTOWN    MOCLDY    72  70  94 CALM      29.99S
DOVER          CLEAR     73  73 100 SW2       29.96S
GEORGETOWN     CLEAR     71  70  96 SW3       29.99S
EASTON         CLEAR     74  74 100 CALM      30.01S
CAMBRIDGE      PTCLDY    72  70  94 CALM      29.97S
SALISBURY      CLEAR     69  69 100 CALM      29.98S
OCEAN CITY     CLEAR     69  68  96 CALM      29.98S
WALLOPS ISLAND CLEAR     75  75 100 SW3       29.98F
ACCOMACK*      CLEAR    N/A N/A N/A S6        29.98S
$$

NCZ012>017-030>032-291000-
NORTH CENTRAL AND EASTERN NORTH CAROLINA

CITY           SKY/WX    TMP DP  RH WIND       PRES   REMARKS
ROANOKE RAPIDS FAIR      70  68  94 CALM      30.00R
RALEIGH        MOCLDY    76  69  79 S5        30.00R
ELIZABETH CITY CLEAR     72  69  90 SW3       29.99S
AHOSKIE*       CLEAR     68  67  96 CALM      30.00R
EDENTON*       CLEAR     73  69  87 SE3       29.99S
CURRITUCK*     CLEAR     74  70  85 CALM      29.99S
KILL DEVIL HLS CLEAR     74  69  83 CALM      29.98S
MANTEO         CLEAR     71  70  95 CALM      29.99S
CAPE HATTERAS  CLEAR     79  70  74 E8        29.98S
TARBORO*         N/A     72  70  95 CALM      30.01R
GOLDSBORO      CLEAR     73  71  92 E1        29.97S
WASHINGTON     PTCLDY    72  70  92 CALM      29.98F
GREENVILLE     PTCLDY    72  72 100 CALM      30.00S
NEW BERN       PTCLDY    73  71  93 CALM      29.99S FOG
WILMINGTON     CLEAR     73  70  90 CALM      29.96F
$$

VAZ048-291000-
ELSEWHERE

CITY           SKY/WX    TMP DP  RH WIND       PRES   REMARKS
HARRISBURG PA  PTCLDY    72  67  84 N3        29.99R
BALTIMORE      PTCLDY    72  70  93 CALM      29.97S
ANNAPOLIS      CLEAR     76  72  87 CALM      29.96F
ANDREWS AFB    CLEAR     73  72  98 S5        29.98R
PHILADELPHIA   PTCLDY    79  71  76 CALM      29.97S
HENDERSON NC   CLOUDY    73  69  86 S6        30.00R
GREENSBORO     CLEAR     73  72  96 S5        29.99S
ROCKY MOUNT    PTCLDY    72  70  93 CALM      30.00R
$$

VAZ100-291000-
MARINE

STATION/POSITION TIME  TEMP    WIND        PRES    WAVE   SWELL
                       AIR SEA DIR/SP/G            HT/PER HT/PER
                 (UTC) (F)     (DEG/KT/KT) (MB)    (FT/S) (FT/S)
BRANDYWINE LGT   0800   76 76  240/  6/  7 1015.2F
CAPE MAY NJ      0800   77 79  240/  3/  3 1014.7F
LEWES DE         0800   74 71  220/  5/  7 1014.9F
15NM E FENWICK I 0850   78 78  220/ 10/ 12 1015.1F   2/ 7   2/ 7
OCEAN-CITY-INLET 0800   76 78  270/  3/  4 1014.4F
WACHAPREAGUE VA  0800   77 83  240/  3/  5 1015.2F
GOOSES REEF MD   0900   80 81  210/  8/ 10 1015.8F
COVE POINT MD    0800   78     230/  4/  4 1015.8F
SOLOMONS ISLAND  0800      82                N/A
BISHOPS HEAD MD  0800   80 83  180/  4/  6 1014.0F
POTOMAC MD       0900   80 83  240/  8/ 10 1014.0S   1
CAMBRIDGE MD     0800   76 83  230/  1/  2 1014.1F
LEWISETTA VA     0800   78 84  230/  5/  6 1014.7F
RAPPAHANNOCK LGT 0800          200/ 12/ 13 1015.6F
STINGRAY PT      0900   80 83  220/ 10/ 14 1015.2F   1/ 3
YORK RVR RNG VA  0800   79     210/ 10/ 11 1014.7F
YORKTOWN VA      0800   77 83  220/  3/  5 1015.0F
JAMESTOWN VA     0900   76 84  180/  4/  6   N/A
DOMINION TERM VA 0800   78     200/  7/  8 1015.2F
KIPTOPEKE VA     0800      81  190/ 10/ 11   N/A
CHES BAY BRIDGE  0800   78 82  170/  7/  9 1014.8F
CAPE HENRY VA    0800   76     170/  6/  7   N/A
CHESAPEAKE LGHT  0800   79     180/ 12/ 12 1015.8F
WILLOUBY STN VA  0800   78     190/  4/  6 1016.2F
CAPE HENRY BUOY  0828      81                N/A     3/ 6
1ST LANDING BUOY 0900      81              1014.8F   2/ 4
CAPE CHARLES BUO 0826      79                N/A     3/11   2/11
OFFSHORE WE BUOY 0811      81                N/A     3/ 6   3/ 6
64NM E OF VA BCH 0850   80 80  180/  4/  6 1015.1F   3/ 6   2/ 6
DUCK PIER NC     0800   76 72  150/  5/  6 1014.6F
44100 DUCK FRF   0824      81                N/A     2/11
44056 DUCK FRF   0811      79                N/A     2/11
OREGON INLET NC  0800   78 82  120/  4/  8 1015.4S
HATTERAS NC      0800   80 83  110/  6/ 11 1014.8F
CAPE LOOKOUT NC  0900   80      80/ 13/ 15 1014.3F
$$



USA.gov is the U.S. government's official web portal to all federal, state and local government web resources and services.